N5CNB Weather Reports


time (UTC)temp
C
wind
direction
speed
KPH
gust
KPH
rain 1hr
cm
rain 24hr
cm
rain mn
cm
humidity
%
barometer
mb
20260510000021 24 66 0.0 6.4 0.00 0.00 0.00 71 1009.2
20260509234532 23 67 0.0 6.4 0.00 0.00 0.00 74 1008.9
20260509233025 24 356 1.6 6.4 0.00 0.00 0.00 72 1009.2
20260509231515 23 42 0.0 0.0 0.00 0.00 0.00 71 1009.1
20260509230004 23 208 0.0 4.8 0.00 0.00 0.00 72 1009.1
20260509224505 24 222 1.6 14.5 0.00 0.00 0.00 68 1009.2
20260509223008 26 326 0.0 9.7 0.00 0.00 0.00 67 1008.8
20260509221510 27 348 6.4 17.7 0.00 0.00 0.00 71 1009.2
20260509220014 29 359 3.2 8.0 0.00 0.00 0.00 72 1008.3
20260509214505 29 342 0.0 6.4 0.00 0.00 0.00 71 1008.3
20260509213004 31 340 3.2 9.7 0.00 0.00 0.00 67 1008.7
20260509211512 32 356 0.0 0.0 0.00 0.00 0.00 60 1008.5
20260509210012 33 282 0.0 3.2 0.00 0.00 0.00 58 1008.6
20260509204517 32 289 0.0 11.3 0.00 0.00 0.00 59 1008.8
20260509203005 33 210 0.0 8.0 0.00 0.00 0.00 59 1009.0
20260509201507 32 239 0.0 9.7 0.00 0.00 0.00 63 1009.2
20260509200008 31 91 3.2 9.7 0.00 0.00 0.00 65 1009.2
20260509194513 33 281 0.0 9.7 0.00 0.00 0.00 59 1009.4
20260509193018 32 2 0.0 11.3 0.00 0.00 0.00 63 1009.6
20260509191504 32 339 3.2 8.0 0.00 0.00 0.00 63 1009.8
20260509190008 31 311 1.6 6.4 0.00 0.00 0.00 67 1010.0
20260509184517 30 264 0.0 11.3 0.00 0.00 0.00 67 1010.1
20260509183016 30 268 3.2 9.7 0.00 0.00 0.00 70 1010.3
20260509181517 30 236 4.8 14.5 0.00 0.00 0.00 69 1010.4
20260509180004 30 213 4.8 11.3 0.00 0.00 0.00 72 1010.7
20260509174508 29 273 6.4 12.9 0.00 0.00 0.00 73 1010.9
20260509173012 28 127 4.8 14.5 0.00 0.00 0.00 74 1011.1
20260509171524 28 159 3.2 9.7 0.00 0.00 0.00 76 1011.2
20260509170028 27 239 3.2 8.0 0.00 0.00 0.00 75 1011.4
20260509164526 27 190 6.4 9.7 0.00 0.00 0.00 76 1011.4
20260509163010 27 136 3.2 8.0 0.00 0.00 0.00 78 1011.3
20260509151514 26 278 1.6 4.8 0.00 0.00 0.00 83 1011.2
20260509140013 23 210 1.6 4.8 0.00 0.00 0.00 92 1010.4
20260509134517 23 150 0.0 4.8 0.00 0.00 0.00 92 1010.6
20260509133021 23 172 3.2 6.4 0.00 0.00 0.00 93 1011.1
20260509131535 22 121 1.6 6.4 0.00 0.00 0.00 93 1010.8
20260509130031 22 101 6.4 16.1 0.00 0.00 0.00 92 1010.7
20260509124520 22 207 1.6 6.4 0.00 0.00 0.00 93 1011.0
20260509121526 22 87 0.0 0.0 0.00 0.00 0.00 93 1011.2
20260509120025 22 87 0.0 0.0 0.00 0.00 0.00 92 1011.2
20260509114529 22 1 0.0 0.0 0.00 0.00 0.00 92 1010.8
20260509113015 22 360 0.0 3.2 0.00 0.00 0.00 92 1010.9
20260509111522 22 360 0.0 0.0 0.00 0.00 0.00 92 1010.8
20260509110024 22 360 0.0 0.0 0.00 0.00 0.00 92 1010.6
20260509104510 22 316 0.0 0.0 0.00 0.00 0.00 92 1011.0
20260509103015 22 181 0.0 0.0 0.00 0.00 0.00 92 1010.6
20260509101533 22 149 0.0 8.0 0.00 0.00 0.00 92 1009.9
20260509100024 22 150 4.8 8.0 0.00 0.00 0.00 92 1009.9
20260509094525 22 346 0.0 1.6 0.00 0.00 0.00 92 1010.4
20260509093012 22 6 0.0 4.8 0.00 0.00 0.00 92 1010.4
20260509091520 22 65 0.0 4.8 0.00 0.00 0.00 92 1010.2
20260509090021 22 60 0.0 0.0 0.00 0.00 0.00 92 1010.2
20260509084523 22 229 0.0 0.0 0.00 0.00 0.00 92 1010.4
20260509083025 22 229 0.0 0.0 0.00 0.00 0.00 92 1010.5
20260509081514 22 229 0.0 0.0 0.00 0.00 0.00 92 1010.6
20260509080019 22 200 0.0 4.8 0.00 0.00 0.00 92 1010.6
20260509074522 22 123 0.0 8.0 0.00 0.00 0.00 92 1010.3
20260509073025 22 169 4.8 8.0 0.00 0.00 0.00 92 1010.3
20260509071526 22 210 0.0 4.8 0.00 0.00 0.00 91 1010.4
20260509070018 22 260 0.0 6.4 0.00 0.00 0.00 91 1010.4
20260509064520 22 122 3.2 9.7 0.00 0.00 0.00 91 1010.0
20260509063021 22 110 3.2 8.0 0.00 0.00 0.00 91 1010.0
20260509061528 22 134 4.8 9.7 0.00 0.00 0.00 90 1010.4
20260509060025 22 137 4.8 8.0 0.00 0.00 0.00 90 1010.7
20260509054516 22 121 3.2 12.9 0.00 0.00 0.00 90 1010.9
20260509053020 22 150 3.2 9.7 0.00 0.00 0.00 89 1010.8
20260509051533 22 152 4.8 9.7 0.00 0.00 0.00 89 1010.9
20260509050028 22 191 4.8 11.3 0.00 0.00 0.00 89 1010.9
20260509044526 22 117 1.6 14.5 0.00 0.00 0.00 89 1010.8
20260509043017 22 80 8.0 14.5 0.00 0.00 0.00 88 1010.8
20260509041521 22 146 6.4 11.3 0.00 0.00 0.00 88 1010.7
20260509040023 22 127 4.8 9.7 0.00 0.00 0.00 88 1010.7
20260509034541 22 176 3.2 9.7 0.00 0.00 0.00 88 1010.6
20260509033025 22 136 1.6 8.0 0.00 0.00 0.00 88 1010.6
20260509031518 22 123 0.0 6.4 0.00 0.00 0.00 87 1010.5
20260509030022 22 92 3.2 14.5 0.00 0.00 0.00 87 1010.3
20260509024530 22 115 6.4 12.9 0.00 0.00 0.00 87 1010.2
20260509023031 23 56 6.4 16.1 0.00 0.00 0.00 87 1010.1
20260509021527 23 120 6.4 11.3 0.00 0.00 0.00 87 1009.9
20260509020004 23 126 3.2 14.5 0.00 0.00 0.00 87 1009.8
20260509014505 23 167 1.6 9.7 0.00 0.00 0.00 87 1009.6
20260509013009 23 100 3.2 14.5 0.00 0.00 0.00 86 1009.5
20260509011515 23 131 4.8 14.5 0.00 0.00 0.00 86 1009.6
20260509010002 23 63 3.2 12.9 0.00 0.00 0.00 85 1009.4
20260509004503 23 107 8.0 14.5 0.00 0.00 0.00 85 1009.4
20260509003005 23 145 0.0 6.4 0.00 0.00 0.00 85 1009.3
20260509001509 24 131 4.8 14.5 0.00 0.00 0.00 84 1009.2